Retour au catalogue

THORAD DELTA 1 DEB

ActifSSO
NORAD 8166·DEBRIS·🇺🇸 United States

Lancé Nov 15, 1974 depuis Vandenberg Space Force Base

Loading…

Prochains Passages (prochaines 24 heures)

TLE

FraisSource: Space-Track

Époque: Sep 13, 2026, 22:42 UTC

1  8166U 74089AG  26256.94628366  .00000021  00000-0  42887-3 0  9999
2  8166 102.0289 254.7390 0038158 189.4338 198.1262 12.51681507365061

Suivez THORAD DELTA 1 DEB en temps réel avec AllMySat

Download on the App Store